User: anonymous   Login
Location: Melque
(41.0517°N, 4.4694°W)
Time: 08:49:43
(UTC+00:00)
Language:

YAOGAN 1 - Orbit

View from above orbital plane
View from above orbital plane
View from above satellite
View from above satellite

Ground track
Ground track

The orbit is defined by the following mean orbital elements,

1 29092U          26044.94210000 +.00000000 +00000-0 +11332-3 0 00000
2 29092  97.7576  68.7099 0001421  89.9451 270.1928 14.87532255    09
Epoch (UTC): 13 February 2026 22:36:37
Eccentricity: 0.0001421
inclination: 97.7576°
perigee height: 605 km
apogee height: 607 km
right ascension of ascending node: 68.7099°
argument of perigee: 89.9451°
revolutions per day: 14.87532255
mean anomaly at epoch: 270.1928°

The dashed part of the orbit path shows where the satellite is in the earth's shadow,  

DLR